Content
SEND FEEDBACK

Daily
Averages
Monthly
Summary
United States of America

OROVILLE, CALIFORNIA


Home > North America > United States > California
Elevation: 199 feet     Latitude: 39 30N     Longitude: 121 37W

WEATHER
 
SELECT A DAY
Number of Records: 152,342;   Date Range: 6/17/98 - 7/29/14
 
SHARE

PRINT THIS DATA

[ ← Previous Day ]
WEATHER ALMANAC - SEPTEMBER 21, 2013
[ Next Day → ]
[ °C ]   °F
Weather ElementAverageHighLow
Temperature61.3 °F66 °F (1:53 am)57 °F (11:53 pm)
Dewpoint57.6 °F60.1 °F (5:53 am)53.1 °F (6:53 pm)
Humidity88 %96 % (11:42 am)72 % (6:53 pm)
Barometer29.83 in29.92 in (11:53 pm)29.79 in (4:53 am)
Wind Speed10.1 mph19.6 mph (4:53 am)
Wind Gust24.2 mph (4:53 am)
Weather ElementAverage
Visibility7.3 mi
Wind DirectionESE (125.1 °)

Weather ElementTotal
Precipitation2.45 in
Heating Degree Days3.5 (Base 65)
Growing Degree Days11.5 (Base 50)
Averaged from 41 records on September 21, 2013
WEATHER CONDITIONS BREAKOUT
WIND DIRECTION BREAKOUT
WEATHER BY HOUR - SEPTEMBER 21, 2013
[ °C ]   °F
Local TimeTemperatureDewpointHumidityBarometerVisibilityWind DirectionWind SpeedGust SpeedPrecipitationEventsConditions
1:53 AM66.0 °F57.0 °F73 %29.83 in10.0 miSSE (150°)16.1 mph0.00 inMostly Cloudy
2:53 AM66.0 °F57.0 °F73 %29.81 in10.0 miSSE (150°)17.3 mphOvercast
3:53 AM66.0 °F57.0 °F73 %29.80 in10.0 miSSE (150°)18.4 mph23.0 mphMostly Cloudy
4:53 AM64.0 °F59.0 °F84 %29.79 in8.0 miSSE (160°)19.6 mph24.2 mph0.00 inRainLight Rain
5:53 AM63.0 °F60.1 °F90 %29.79 in10.0 miSSE (160°)10.4 mph0.02 inOvercast
6:53 AM62.1 °F59.0 °F90 %29.79 in10.0 miSSE (160°)16.1 mphOvercast
7:06 AM62.1 °F57.9 °F86 %29.79 in10.0 miSouth (170°)13.8 mphOvercast
7:53 AM63.0 °F59.0 °F87 %29.80 in10.0 miSSE (160°)10.4 mphOvercast
8:42 AM64.0 °F59.0 °F84 %29.80 in10.0 miSSE (160°)17.3 mphMostly Cloudy
8:53 AM64.0 °F59.0 °F84 %29.81 in10.0 miSouth (170°)17.3 mphPartly Cloudy
9:53 AM64.9 °F57.9 °F78 %29.83 in10.0 miSSE (160°)12.7 mphOvercast
10:53 AM63.0 °F60.1 °F90 %29.83 in4.0 miSouth (170°)5.8 mph0.03 inRainLight Rain
11:29 AM61.0 °F59.0 °F93 %29.83 in2.5 miSSE (160°)5.8 mph0.12 inRainRain
11:42 AM60.1 °F59.0 °F96 %29.83 in4.0 miCalm0.15 inRainLight Rain
11:46 AM60.1 °F59.0 °F96 %29.83 in4.0 miCalm0.16 inRainRain
11:53 AM60.1 °F59.0 °F96 %29.84 in2.0 miCalm0.21 inRainRain
12:00 PM60.1 °F59.0 °F96 %29.83 in1.0 miEast (80°)5.8 mph0.09 inRainHeavy Rain
12:08 PM61.0 °F59.0 °F93 %29.84 in1.8 miCalm0.12 inRainRain
12:13 PM61.0 °F59.0 °F93 %29.84 in2.5 miSE (140°)6.9 mph0.14 inRainRain
12:25 PM61.0 °F59.0 °F93 %29.83 in2.5 miSSE (150°)8.1 mph0.19 inRainRain
12:30 PM60.1 °F59.0 °F96 %29.83 in3.0 miSE (140°)11.5 mph0.21 inRainRain
12:33 PM60.1 °F59.0 °F96 %29.83 in2.5 miSE (140°)13.8 mph0.22 inRainRain
12:49 PM60.8 °F59.0 °F94 %29.82 in4.0 miSE (140°)11.5 mph0.27 inRainRain
12:53 PM60.1 °F59.0 °F96 %29.83 in4.0 miSE (140°)12.7 mph0.28 inRainRain
1:53 PM60.1 °F59.0 °F96 %29.82 in10.0 miSE (140°)15.0 mph0.07 inRainLight Rain
2:36 PM60.1 °F59.0 °F96 %29.82 in6.0 miSSE (150°)12.7 mph0.02 inRainLight Rain
2:48 PM60.8 °F59.0 °F94 %29.82 in7.0 miSE (140°)16.1 mph0.04 inRainLight Rain
2:53 PM60.1 °F59.0 °F96 %29.82 in7.0 miSE (140°)13.8 mph0.04 inRainLight Rain
3:53 PM61.0 °F57.9 °F90 %29.82 in10.0 miSE (130°)12.7 mph0.01 inOvercast
4:05 PM61.0 °F57.0 °F87 %29.82 in10.0 miSE (130°)13.8 mphOvercast
4:35 PM61.0 °F55.9 °F83 %29.81 in10.0 miSE (130°)16.1 mphMostly Cloudy
4:53 PM61.0 °F55.0 °F81 %29.81 in10.0 miESE (110°)13.8 mphPartly Cloudy
5:53 PM62.1 °F54.0 °F75 %29.81 in10.0 miESE (110°)11.5 mphMostly Cloudy
6:53 PM62.1 °F53.1 °F72 %29.83 in10.0 miESE (110°)8.1 mphOvercast
7:53 PM59.0 °F55.0 °F87 %29.85 in10.0 miESE (120°)3.5 mph0.03 inMostly Cloudy
8:19 PM60.1 °F55.0 °F83 %29.86 in10.0 miCalmThunderstormOvercast
8:34 PM60.1 °F54.0 °F80 %29.87 in10.0 miNNW (340°)4.6 mphOvercast
8:53 PM59.0 °F55.0 °F87 %29.88 in10.0 miWest (260°)5.8 mph0.00 inRainLight Rain
9:53 PM57.9 °F54.0 °F87 %29.88 in10.0 miEast (100°)8.1 mph0.00 inPartly Cloudy
10:53 PM57.9 °F54.0 °F87 %29.90 in10.0 miCalmOvercast
11:53 PM57.0 °F55.9 °F96 %29.92 in5.0 miNorth (10°)8.1 mph0.03 inRainHeavy Rain
Hourly data recorded from KOVE, located miles away from Oroville, California







STORIES FROM OUR PARTNERS